Погода в Таизе

Йемен     13°34′54″N   44°00′52″E
темп.,
°C
ветер,
м/с
пор.,
м/с
влажн.,
%
обл.,
%
осадки,
мм/ч
давл.,
гПа
погр.,
м
27 ноября, сб
сб2700:00+19в23732 0.3 1018190
03:00+19в22730 0.3 101667
06:00+18в11680 0.0 101811
09:00+22в11440 0.0 1018792
12:00+25з12331 0.0 10152126
15:00+26з434196 0.0 10131820
18:00+22ссз245670 0.5 1016927
21:00+21св22590 0.6 1018387
28 ноября, вс
вс2800:00+20всв22610 0.0 101756
03:00+19всв11620 0.0 101611
06:00+19вюв22595 0.0 101713
09:00+23в34360 0.0 1018993
12:00+26в24230 0.0 10152077
15:00+27зсз16220 0.0 10122753
18:00+22сз345615 0.1 1015846
21:00+20всв22642 0.2 1018379
29 ноября, пн
пн2900:00+19в22655 0.0 101776
03:00+19всв12505 0.0 101611
06:00+18в22505 0.0 101714
09:00+22в23300 0.0 1018710
12:00+25в23200 0.0 10161992
15:00+26зсз23180 0.0 10132433
18:00+21сз32591 0.1 1016712
21:00+20всв22660 0.1 1018465
30 ноября, вт
вт3000:00+18в22730 0.0 1017124
03:00+18всв226837 0.0 101627
06:00+17в22624 0.0 101722
09:00+21в22392 0.0 1018614
12:00+24зсз23314 0.0 10152063
15:00+25з433862 0.0 10122051
18:00+21зсз225836 0.0 1014817
21:00+19всв22680 0.1 1017417
1 декабря, ср
ср100:00+18в22730 0.0 1016127
03:00+17в22640 0.0 101526
06:00+17в22570 0.0 101623
09:00+21в21400 0.0 1016600
12:00+24сз12331 0.0 10132061
15:00+24з333444 0.0 10102158
18:00+21в124992 0.0 1012988
21:00+18в34660 0.0 1016367